When you browse on this site, cookies collect data to enhance your experience and personalize the content and advertising you see.
Visit our Privacy Policy to learn more. By continuing to use the site, you agree to this use of cookies and data.
  • In Spain
  • List of Countries
  • For 7 days
  • Water Temperature
  • Weather Map
  • Weather Widgets
  • user-avatar
    Login

    Hourly Weather Afonki

    Today, 31 May, Sunday

    Time Temperature Precipitation Wind Pressure Humidity
    00:00 +14°C° 1.3 mm 7 mps 739 mmHg 87%
    01:00 +12°C° 1.3 mm 7 mps 739 mmHg 91%
    02:00 +11°C° 0 mm 6 mps 740 mmHg 93%
    03:00 +11°C° 1.4 mm 6 mps 740 mmHg 94%
    04:00 +10°C° 1.4 mm 6 mps 739 mmHg 94%
    05:00 +10°C° 1.4 mm 7 mps 739 mmHg 95%
    06:00 +10°C° 2.2 mm 7 mps 740 mmHg 95%
    07:00 +10°C° 2.2 mm 7 mps 740 mmHg 95%
    08:00 +10°C° 2.2 mm 7 mps 740 mmHg 94%
    09:00 +10°C° 0.4 mm 7 mps 741 mmHg 91%
    10:00 +11°C° 0.4 mm 6 mps 741 mmHg 88%
    11:00 +11°C° 0.4 mm 6 mps 741 mmHg 84%
    12:00 +13°C° 0.1 mm 6 mps 741 mmHg 77%
    13:00 +15°C° 0.1 mm 6 mps 742 mmHg 70%
    14:00 +16°C° 0.1 mm 7 mps 742 mmHg 63%
    15:00 +15°C° 0.1 mm 6 mps 742 mmHg 67%
    16:00 +14°C° 0.1 mm 5 mps 742 mmHg 71%
    17:00 +14°C° 0.1 mm 4 mps 742 mmHg 75%
    18:00 +13°C° 0.1 mm 4 mps 742 mmHg 76%
    19:00 +12°C° 0.1 mm 4 mps 743 mmHg 77%
    20:00 +11°C° 0.1 mm 4 mps 743 mmHg 78%
    21:00 +10°C° 0 mm 4 mps 743 mmHg 77%
    22:00 +7°C° 0 mm 4 mps 743 mmHg 77%
    23:00 +6°C° 0 mm 4 mps 744 mmHg 76%

    Tomorrow, 1 June, Monday

    Time Temperature Precipitation Wind Pressure Humidity
    00:00 +6°C° 0 mm 4 mps 744 mmHg 77%
    01:00 +5°C° 0 mm 4 mps 744 mmHg 77%
    02:00 +4°C° 0 mm 4 mps 744 mmHg 78%
    03:00 +3°C° 0 mm 5 mps 744 mmHg 79%
    04:00 +3°C° 0 mm 5 mps 744 mmHg 79%
    05:00 +3°C° 0 mm 5 mps 743 mmHg 80%
    06:00 +5°C° 0 mm 5 mps 744 mmHg 76%
    07:00 +5°C° 0 mm 6 mps 744 mmHg 72%
    08:00 +8°C° 0 mm 6 mps 744 mmHg 68%
    09:00 +7°C° 0 mm 6 mps 744 mmHg 71%
    10:00 +7°C° 0 mm 6 mps 744 mmHg 73%
    11:00 +7°C° 0 mm 6 mps 744 mmHg 76%
    12:00 +7°C° 0 mm 6 mps 744 mmHg 77%
    13:00 +8°C° 0 mm 7 mps 743 mmHg 78%
    14:00 +8°C° 0 mm 7 mps 743 mmHg 80%
    15:00 +8°C° 0.1 mm 7 mps 743 mmHg 78%
    16:00 +9°C° 0.1 mm 7 mps 743 mmHg 77%
    17:00 +9°C° 0.1 mm 7 mps 742 mmHg 76%
    18:00 +9°C° 0.1 mm 7 mps 742 mmHg 78%
    19:00 +9°C° 0.1 mm 6 mps 742 mmHg 80%
    20:00 +8°C° 0.1 mm 6 mps 742 mmHg 82%
    21:00 +8°C° 0.5 mm 7 mps 741 mmHg 85%
    22:00 +8°C° 0.5 mm 7 mps 741 mmHg 89%
    23:00 +8°C° 0.5 mm 7 mps 740 mmHg 92%

    Day after tomorrow, 2 June, Tuesday

    Time Temperature Precipitation Wind Pressure Humidity
    00:00 +7°C° 0.5 mm 8 mps 740 mmHg 92%
    01:00 +7°C° 0.5 mm 8 mps 740 mmHg 92%
    02:00 +6°C° 0.5 mm 8 mps 739 mmHg 92%
    03:00 +6°C° 2 mm 8 mps 739 mmHg 93%
    04:00 +6°C° 2 mm 8 mps 739 mmHg 94%
    05:00 +6°C° 2 mm 8 mps 739 mmHg 95%
    06:00 +6°C° 1.8 mm 8 mps 739 mmHg 95%
    07:00 +6°C° 1.8 mm 8 mps 739 mmHg 95%
    08:00 +6°C° 1.8 mm 8 mps 739 mmHg 95%
    09:00 +6°C° 1.3 mm 8 mps 739 mmHg 95%
    10:00 +6°C° 1.3 mm 8 mps 740 mmHg 95%
    11:00 +6°C° 1.3 mm 7 mps 740 mmHg 95%
    12:00 +8°C° 0.7 mm 7 mps 740 mmHg 95%
    13:00 +8°C° 0.7 mm 7 mps 740 mmHg 95%
    14:00 +8°C° 0.7 mm 6 mps 740 mmHg 95%
    15:00 +8°C° 0.2 mm 6 mps 740 mmHg 94%
    16:00 +9°C° 0.2 mm 6 mps 740 mmHg 94%
    17:00 +9°C° 0.2 mm 6 mps 739 mmHg 94%
    18:00 +9°C° 0.6 mm 6 mps 740 mmHg 95%
    19:00 +9°C° 0.6 mm 6 mps 740 mmHg 95%
    20:00 +9°C° 0.6 mm 6 mps 740 mmHg 96%
    21:00 +9°C° 0.3 mm 5 mps 740 mmHg 96%
    22:00 +9°C° 0.3 mm 5 mps 740 mmHg 96%
    23:00 +10°C° 0.3 mm 4 mps 740 mmHg 97%

    3 June, Wednesday

    Time Temperature Precipitation Wind Pressure Humidity
    00:00 +10°C° 0.1 mm 4 mps 740 mmHg 97%
    01:00 +10°C° 0.1 mm 3 mps 740 mmHg 97%
    02:00 +9°C° 0.1 mm 3 mps 740 mmHg 97%
    03:00 +9°C° 0 mm 3 mps 740 mmHg 97%
    04:00 +9°C° 0 mm 3 mps 740 mmHg 97%
    05:00 +9°C° 0 mm 2 mps 740 mmHg 97%
    06:00 +11°C° 0 mm 3 mps 740 mmHg 92%
    07:00 +12°C° 0 mm 3 mps 740 mmHg 88%
    08:00 +13°C° 0 mm 3 mps 740 mmHg 84%
    09:00 +14°C° 0 mm 4 mps 740 mmHg 76%
    10:00 +15°C° 0 mm 4 mps 740 mmHg 69%
    11:00 +16°C° 0 mm 5 mps 740 mmHg 62%
    12:00 +18°C° 0.1 mm 4 mps 740 mmHg 62%
    13:00 +18°C° 0.1 mm 4 mps 740 mmHg 61%
    14:00 +18°C° 0.1 mm 4 mps 740 mmHg 61%
    15:00 +18°C° 0.3 mm 3 mps 740 mmHg 65%
    16:00 +18°C° 0.3 mm 3 mps 740 mmHg 69%
    17:00 +17°C° 0.3 mm 2 mps 739 mmHg 73%
    18:00 +16°C° 0.2 mm 2 mps 739 mmHg 77%
    19:00 +15°C° 0.2 mm 2 mps 739 mmHg 82%
    20:00 +13°C° 0.2 mm 1 mps 739 mmHg 86%
    21:00 +13°C° 0.1 mm 2 mps 739 mmHg 88%
    22:00 +12°C° 0.1 mm 2 mps 739 mmHg 91%
    23:00 +12°C° 0.1 mm 2 mps 739 mmHg 93%

    4 June, Thursday

    Time Temperature Precipitation Wind Pressure Humidity
    00:00 +12°C° 0.1 mm 2 mps 739 mmHg 94%
    01:00 +12°C° 0.1 mm 2 mps 739 mmHg 95%
    02:00 +12°C° 0.1 mm 2 mps 738 mmHg 96%
    03:00 +12°C° 0.4 mm 2 mps 738 mmHg 96%
    04:00 +12°C° 0.4 mm 2 mps 738 mmHg 95%
    05:00 +12°C° 0.4 mm 2 mps 737 mmHg 95%
    06:00 +12°C° 0.1 mm 2 mps 737 mmHg 94%
    07:00 +12°C° 0.1 mm 2 mps 737 mmHg 93%
    08:00 +13°C° 0.1 mm 2 mps 737 mmHg 92%
    09:00 +13°C° 0.1 mm 2 mps 737 mmHg 90%
    10:00 +14°C° 0.1 mm 1 mps 737 mmHg 87%
    11:00 +15°C° 0.1 mm 1 mps 736 mmHg 85%
    12:00 +16°C° 0.5 mm 2 mps 736 mmHg 81%
    13:00 +17°C° 0.5 mm 2 mps 736 mmHg 77%
    14:00 +18°C° 0.5 mm 2 mps 736 mmHg 72%
    15:00 +18°C° 0.6 mm 2 mps 736 mmHg 75%
    16:00 +18°C° 0.6 mm 2 mps 736 mmHg 78%
    17:00 +17°C° 0.6 mm 2 mps 736 mmHg 81%
    18:00 +16°C° 0.5 mm 2 mps 735 mmHg 84%
    19:00 +15°C° 0.5 mm 2 mps 735 mmHg 88%
    20:00 +13°C° 0.5 mm 2 mps 735 mmHg 91%
    21:00 +12°C° 0 mm 2 mps 735 mmHg 92%
    22:00 +12°C° 0 mm 2 mps 735 mmHg 93%
    23:00 +10°C° 0 mm 3 mps 735 mmHg 95%

    5 June, Friday

    Time Temperature Precipitation Wind Pressure Humidity
    00:00 +9°C° 0 mm 3 mps 735 mmHg 95%
    01:00 +9°C° 0 mm 3 mps 735 mmHg 96%
    02:00 +9°C° 0 mm 2 mps 735 mmHg 96%
    03:00 +9°C° 0 mm 3 mps 735 mmHg 96%
    04:00 +9°C° 0 mm 3 mps 734 mmHg 97%
    05:00 +10°C° 0 mm 3 mps 734 mmHg 97%
    06:00 +11°C° 0.2 mm 3 mps 734 mmHg 93%
    07:00 +13°C° 0.2 mm 3 mps 734 mmHg 90%
    08:00 +14°C° 0.2 mm 4 mps 734 mmHg 86%
    09:00 +15°C° 0.6 mm 4 mps 734 mmHg 81%
    10:00 +17°C° 0.6 mm 4 mps 734 mmHg 75%
    11:00 +18°C° 0.6 mm 4 mps 734 mmHg 69%
    12:00 +19°C° 0.3 mm 4 mps 733 mmHg 69%
    13:00 +19°C° 0.3 mm 4 mps 733 mmHg 69%
    14:00 +19°C° 0.3 mm 4 mps 733 mmHg 69%
    15:00 +18°C° 0.5 mm 4 mps 732 mmHg 76%
    16:00 +17°C° 0.5 mm 4 mps 732 mmHg 83%
    17:00 +16°C° 0.5 mm 3 mps 731 mmHg 90%
    18:00 +14°C° 0.5 mm 3 mps 731 mmHg 92%
    19:00 +13°C° 0.5 mm 3 mps 730 mmHg 95%
    20:00 +13°C° 0.5 mm 2 mps 730 mmHg 98%
    21:00 +13°C° 0.8 mm 2 mps 730 mmHg 98%
    22:00 +12°C° 0.8 mm 3 mps 730 mmHg 98%
    23:00 +12°C° 0.8 mm 3 mps 730 mmHg 98%
    Show more